| time (UTC) | temp C | wind direction | speed KPH | gust KPH | rain 1hr cm | rain 24hr cm | rain mn cm | humidity % | barometer mb |
| 20260906153609 | 22 | 97 | 3.2 | 11.3 | 0.00 | 0.00 | 0.00 | 88 | 1019.7 |
| 20260906152106 | 21 | 142 | 3.2 | 12.9 | 0.00 | 0.00 | 0.00 | 89 | 1019.8 |
| 20260906150606 | 21 | 37 | 3.2 | 14.5 | 0.00 | 0.00 | 0.00 | 89 | 1019.7 |
| 20260906145106 | 21 | 38 | 3.2 | 14.5 | 0.00 | 0.00 | 0.00 | 90 | 1019.6 |
| 20260906143603 | 21 | 80 | 3.2 | 14.5 | 0.00 | 0.00 | 0.00 | 90 | 1019.5 |
| 20260906142102 | 20 | 36 | 4.8 | 14.5 | 0.00 | 0.00 | 0.00 | 90 | 1019.3 |
| 20260906141301 | 20 | 104 | 4.8 | 14.5 | 0.00 | 0.00 | 0.00 | 91 | 1019.3 |
| 20260906135057 | 20 | 78 | 3.2 | 14.5 | 0.00 | 0.00 | 0.00 | 91 | 1019.1 |
| 20260906133556 | 20 | 101 | 3.2 | 11.3 | 0.00 | 0.00 | 0.00 | 91 | 1019.2 |
| 20260906132053 | 20 | 75 | 3.2 | 14.5 | 0.00 | 0.00 | 0.00 | 92 | 1019.2 |
| 20260906130549 | 20 | 49 | 3.2 | 9.7 | 0.00 | 0.00 | 0.00 | 92 | 1019.0 |
| 20260906125049 | 20 | 48 | 3.2 | 12.9 | 0.00 | 0.00 | 0.00 | 92 | 1018.8 |
| 20260906123547 | 20 | 127 | 3.2 | 9.7 | 0.00 | 0.00 | 0.00 | 91 | 1018.5 |
| 20260906122046 | 20 | 21 | 3.2 | 9.7 | 0.00 | 0.00 | 0.00 | 91 | 1018.5 |
| 20260906120543 | 20 | 55 | 3.2 | 11.3 | 0.00 | 0.00 | 0.00 | 91 | 1018.4 |
| 20260906115044 | 20 | 56 | 1.6 | 6.4 | 0.00 | 0.00 | 0.00 | 91 | 1018.3 |
| 20260906113543 | 20 | 57 | 0.0 | 6.4 | 0.00 | 0.00 | 0.00 | 91 | 1018.3 |
| 20260906112042 | 20 | 41 | 0.0 | 0.0 | 0.00 | 0.00 | 0.00 | 91 | 1018.2 |
| 20260906110542 | 20 | 77 | 0.0 | 3.2 | 0.00 | 0.00 | 0.00 | 91 | 1018.1 |
| 20260906105744 | 20 | 58 | 0.0 | 3.2 | 0.00 | 0.00 | 0.00 | 90 | 1018.0 |
| 20260906103537 | 21 | 58 | 0.0 | 3.2 | 0.00 | 0.00 | 0.00 | 91 | 1017.9 |
| 20260906102036 | 21 | 61 | 1.6 | 9.7 | 0.00 | 0.00 | 0.00 | 91 | 1017.8 |
| 20260906100535 | 21 | 69 | 1.6 | 6.4 | 0.00 | 0.00 | 0.00 | 91 | 1017.5 |
| 20260906095035 | 21 | 61 | 1.6 | 6.4 | 0.00 | 0.00 | 0.00 | 90 | 1017.5 |
| 20260906093527 | 21 | 85 | 1.6 | 8.0 | 0.00 | 0.00 | 0.00 | 90 | 1017.0 |
| 20260906092027 | 21 | 50 | 3.2 | 12.9 | 0.00 | 0.00 | 0.00 | 90 | 1016.7 |
| 20260906090527 | 21 | 65 | 3.2 | 12.9 | 0.00 | 0.00 | 0.00 | 90 | 1016.7 |
| 20260906085025 | 21 | 9 | 3.2 | 11.3 | 0.00 | 0.00 | 0.00 | 89 | 1016.8 |
| 20260906083525 | 21 | 59 | 3.2 | 9.7 | 0.00 | 0.00 | 0.00 | 89 | 1016.7 |
| 20260906082023 | 21 | 51 | 4.8 | 14.5 | 0.00 | 0.00 | 0.00 | 88 | 1016.7 |
| 20260906080523 | 22 | 36 | 3.2 | 16.1 | 0.00 | 0.00 | 0.00 | 88 | 1016.7 |
| 20260906075712 | 22 | 78 | 4.8 | 14.5 | 0.00 | 0.00 | 0.00 | 88 | 1016.7 |
| 20260906073522 | 22 | 63 | 3.2 | 14.5 | 0.00 | 0.00 | 0.00 | 88 | 1016.9 |
| 20260906072021 | 22 | 44 | 4.8 | 14.5 | 0.00 | 0.00 | 0.00 | 88 | 1017.0 |
| 20260906070521 | 22 | 60 | 3.2 | 12.9 | 0.00 | 0.00 | 0.00 | 88 | 1016.9 |
| 20260906065706 | 22 | 342 | 4.8 | 11.3 | 0.00 | 0.00 | 0.00 | 88 | 1016.9 |
| 20260906063510 | 22 | 74 | 3.2 | 11.3 | 0.00 | 0.00 | 0.00 | 88 | 1017.4 |
| 20260906062010 | 22 | 74 | 1.6 | 6.4 | 0.00 | 0.00 | 0.00 | 88 | 1017.1 |
| 20260906060510 | 22 | 40 | 1.6 | 11.3 | 0.00 | 0.00 | 0.00 | 88 | 1017.4 |
| 20260906053448 | 22 | 38 | 1.6 | 8.0 | 0.00 | 0.00 | 0.00 | 87 | 1017.3 |
| 20260906051946 | 22 | 72 | 1.6 | 6.4 | 0.00 | 0.00 | 0.00 | 87 | 1017.3 |
| 20260906050446 | 22 | 74 | 1.6 | 8.0 | 0.00 | 0.00 | 0.00 | 88 | 1017.0 |
| 20260906044943 | 22 | 71 | 3.2 | 8.0 | 0.00 | 0.00 | 0.00 | 88 | 1016.9 |
| 20260906043444 | 22 | 61 | 1.6 | 9.7 | 0.00 | 0.00 | 0.00 | 88 | 1016.8 |
| 20260906041942 | 22 | 32 | 1.6 | 8.0 | 0.00 | 0.00 | 0.00 | 88 | 1016.5 |
| 20260906041135 | 23 | 74 | 1.6 | 6.4 | 0.00 | 0.00 | 0.00 | 87 | 1016.6 |
| 20260906034940 | 23 | 70 | 0.0 | 6.4 | 0.00 | 0.00 | 0.00 | 86 | 1016.4 |
| 20260906034129 | 23 | 65 | 1.6 | 6.4 | 0.00 | 0.00 | 0.00 | 86 | 1016.4 |
| 20260906031923 | 23 | 59 | 1.6 | 4.8 | 0.00 | 0.00 | 0.00 | 85 | 1016.4 |
| 20260906030423 | 23 | 72 | 3.2 | 11.3 | 0.00 | 0.00 | 0.00 | 85 | 1016.2 |
| 20260906024924 | 23 | 55 | 4.8 | 12.9 | 0.00 | 0.00 | 0.00 | 84 | 1016.2 |
| 20260906023422 | 24 | 92 | 3.2 | 17.7 | 0.00 | 0.00 | 0.00 | 84 | 1016.1 |
| 20260906021920 | 24 | 103 | 6.4 | 19.3 | 0.00 | 0.00 | 0.00 | 83 | 1015.6 |
| 20260906021043 | 25 | 0 | 4.8 | 12.9 | 0.00 | 0.00 | 0.00 | 83 | 1015.5 |
| 20260906014851 | 25 | 80 | 3.2 | 14.5 | 0.00 | 0.00 | 0.00 | 83 | 1015.4 |
| 20260906013351 | 25 | 32 | 3.2 | 8.0 | 0.00 | 0.00 | 0.00 | 83 | 1015.2 |
| 20260906011851 | 25 | 71 | 3.2 | 11.3 | 0.00 | 0.00 | 0.00 | 82 | 1015.0 |
| 20260906010349 | 26 | 44 | 3.2 | 11.3 | 0.00 | 0.00 | 0.00 | 82 | 1015.0 |
| 20260906004849 | 26 | 55 | 4.8 | 14.5 | 0.00 | 0.00 | 0.00 | 81 | 1015.0 |
| 20260906003346 | 27 | 53 | 6.4 | 16.1 | 0.00 | 0.00 | 0.00 | 80 | 1014.9 |
| 20260906001846 | 27 | 67 | 6.4 | 19.3 | 0.00 | 0.00 | 0.00 | 80 | 1014.9 |
| 20260906000344 | 28 | 49 | 8.0 | 20.9 | 0.00 | 0.00 | 0.00 | 79 | 1014.7 |
| 20260905234845 | 28 | 24 | 6.4 | 19.3 | 0.00 | 0.00 | 0.00 | 78 | 1014.7 |
| 20260905231826 | 31 | 71 | 4.8 | 20.9 | 0.00 | 0.00 | 0.00 | 74 | 1014.4 |
| 20260905230325 | 31 | 13 | 4.8 | 14.5 | 0.00 | 0.00 | 0.00 | 71 | 1014.2 |
| 20260905224822 | 31 | 61 | 3.2 | 14.5 | 0.00 | 0.00 | 0.00 | 69 | 1014.1 |
| 20260905223321 | 32 | 48 | 3.2 | 12.9 | 0.00 | 0.00 | 0.00 | 71 | 1014.0 |
| 20260905222523 | 32 | 55 | 3.2 | 14.5 | 0.00 | 0.00 | 0.00 | 69 | 1013.8 |
| 20260905221011 | 32 | 55 | 4.8 | 12.9 | 0.00 | 0.00 | 0.00 | 69 | 1013.9 |
| 20260905214818 | 32 | 82 | 3.2 | 9.7 | 0.00 | 0.00 | 0.00 | 72 | 1014.0 |
| 20260905213316 | 32 | 43 | 3.2 | 12.9 | 0.00 | 0.00 | 0.00 | 69 | 1014.0 |
| 20260905211816 | 32 | 5 | 3.2 | 12.9 | 0.00 | 0.00 | 0.00 | 71 | 1014.1 |
| 20260905210317 | 33 | 41 | 3.2 | 12.9 | 0.00 | 0.00 | 0.00 | 67 | 1014.2 |
| 20260905204815 | 33 | 56 | 3.2 | 8.0 | 0.00 | 0.00 | 0.00 | 66 | 1014.3 |
| 20260905203312 | 33 | 67 | 3.2 | 9.7 | 0.00 | 0.00 | 0.00 | 65 | 1014.4 |
| 20260905201811 | 33 | 43 | 3.2 | 9.7 | 0.00 | 0.00 | 0.00 | 69 | 1014.6 |
| 20260905200310 | 33 | 345 | 3.2 | 16.1 | 0.00 | 0.00 | 0.00 | 68 | 1014.6 |
| 20260905194810 | 32 | 36 | 3.2 | 8.0 | 0.00 | 0.00 | 0.00 | 72 | 1014.9 |
| 20260905192504 | 32 | 77 | 3.2 | 11.3 | 0.00 | 0.00 | 0.00 | 70 | 1015.0 |
| 20260905190303 | 32 | 61 | 3.2 | 9.7 | 0.00 | 0.00 | 0.00 | 73 | 1015.1 |
| 20260905184800 | 32 | 112 | 4.8 | 11.3 | 0.00 | 0.00 | 0.00 | 72 | 1015.1 |
| 20260905183300 | 32 | 18 | 4.8 | 12.9 | 0.00 | 0.00 | 0.00 | 74 | 1015.3 |
| 20260905181800 | 32 | 96 | 3.2 | 12.9 | 0.00 | 0.00 | 0.00 | 73 | 1015.4 |
| 20260905180300 | 32 | 51 | 3.2 | 9.7 | 0.00 | 0.00 | 0.00 | 74 | 1015.3 |
| 20260905174758 | 32 | 15 | 3.2 | 9.7 | 0.00 | 0.00 | 0.00 | 72 | 1015.3 |
| 20260905173258 | 32 | 57 | 3.2 | 9.7 | 0.00 | 0.00 | 0.00 | 71 | 1015.4 |
| 20260905171756 | 32 | 31 | 4.8 | 14.5 | 0.00 | 0.00 | 0.00 | 71 | 1015.3 |
| 20260905170944 | 32 | 18 | 4.8 | 8.0 | 0.00 | 0.00 | 0.00 | 71 | 1015.4 |
| 20260905164754 | 32 | 67 | 3.2 | 11.3 | 0.00 | 0.00 | 0.00 | 69 | 1015.6 |
| 20260905163254 | 32 | 14 | 3.2 | 9.7 | 0.00 | 0.00 | 0.00 | 70 | 1015.8 |
| 20260905161753 | 32 | 5 | 3.2 | 9.7 | 0.00 | 0.00 | 0.00 | 70 | 1015.7 |
| 20260905160252 | 32 | 331 | 4.8 | 11.3 | 0.00 | 0.00 | 0.00 | 71 | 1015.6 |
| 20260905154751 | 32 | 9 | 3.2 | 8.0 | 0.00 | 0.00 | 0.00 | 73 | 1015.5 |